Flag for U.S.A. Weather past 2 weeks in Birmingham, Alabama, U.S.A.

Now
68 °F

Light rain. Mostly cloudy.


Feels Like: 68 °F
Forecast: 66 / 77 °F
Wind: 9 mph from South

Location: Birmingham International Airport

Current Time: Apr 19, 2015 at 3:47:30 AM

Latest Report: Apr 19, 2015 at 2:53 AM


Visibility: 10 mi

Pressure: 29.78 "Hg

Humidity: 96%

Dew point: 67 °F

Location of BirminghamLocation

Historic Weather in Birmingham — Graph

°F

Birmingham temperature yesterday

Maximum temperature yesterday: 72 °F (at 3:53 PM)
Minimum temperature yesterday: 61 °F (at 12:53 AM)
Average temperature yesterday: 66 °F

Past Weeks' High & Low Weather Summary

 TemperatureHumidityPressure
High83 °F (Apr 8, 2:53 PM)100% (Apr 16, 9:53 PM)30.30 "Hg (Apr 16, 9:53 PM)
Low43 °F (Apr 5, 2:53 AM)22% (Apr 11, 4:53 PM)29.78 "Hg (Apr 19, 2:53 AM)
Average67 °F76%30.09 "Hg
* Reported Apr 4 2:53 AM — Apr 19 2:53 AM, Birmingham, Weather by CustomWeather, © 2015

Note: Actual official high and low records may vary slightly from our data, if they occured in-between our weather recording intervals... More about our weather records

Advertising

Birmingham weather history for previous 24 hours

 ConditionsComfort  
Time TempWeatherWind HumidityBarometerVisibility
2:53 AM
Sun, Apr 19
68 °FLight rain. Mostly cloudy.9 mph96%29.78 "Hg10 mi
1:53 AM67 °FLight rain. Fog.7 mph97%29.80 "Hg4 mi
12:53 AM67 °FLight rain. Overcast.6 mph97%29.82 "Hg10 mi
11:53 PM
Sat, Apr 18
67 °FLight rain. Mostly cloudy.8 mph97%29.86 "Hg8 mi
10:53 PM67 °FMostly cloudy.7 mph93%29.87 "Hg10 mi
9:53 PM68 °FOvercast.3 mph87%29.91 "Hg10 mi
8:53 PM69 °FOvercast.No wind84%29.92 "Hg10 mi
8:00 PM69 °FOvercast.3 mph84%29.93 "Hg10 mi
7:53 PM69 °FOvercast.No wind84%29.90 "Hg10 mi
6:53 PM70 °FMostly cloudy.3 mph81%29.89 "Hg10 mi
5:53 PM71 °FMostly cloudy.5 mph73%29.92 "Hg10 mi
4:53 PM72 °FMore clouds than sun.7 mph73%29.91 "Hg10 mi
3:53 PM72 °FMore clouds than sun.7 mph73%29.89 "Hg10 mi
2:53 PM70 °FOvercast.3 mph79%29.92 "Hg10 mi
1:53 PM70 °FOvercast.7 mph79%29.96 "Hg10 mi
12:53 PM68 °FOvercast.6 mph84%29.96 "Hg10 mi
11:53 AM68 °FMore clouds than sun.8 mph84%29.98 "Hg10 mi
10:53 AM67 °FMostly cloudy.5 mph87%30.01 "Hg9 mi
9:53 AM66 °FOvercast.7 mph90%29.98 "Hg10 mi
8:53 AM65 °FFog.6 mph94%29.97 "Hg4 mi
7:53 AM64 °FLow clouds.8 mph94%29.97 "Hg10 mi
6:53 AM63 °FFog.No wind97%29.99 "Hg5 mi
5:53 AM62 °FFog.5 mph96%29.97 "Hg3 mi
4:53 AM62 °FDrizzle. Fog.No wind100%29.98 "Hg2 mi
3:53 AM62 °FLow clouds.No wind96%29.98 "Hg10 mi
Weather by CustomWeather, © 2015

See weather overviewHow to use our weather pages